Tracking 19796 objects as of 19-Jul-2019
HD Live streaming from Space Station
objects crossing your sky now

FENGYUN 1C DEB

Track FENGYUN 1C DEB now!
10-day predictions


NORAD ID: 36732
Int'l Code: 1999-025EBE
Perigee: 521.9 km
Apogee: 723.7 km
Inclination: 99.0 °
Period: 97.0 minutes
Semi major axis: 6993 km
RCS: 0.0052 m2 (small)
Launch date: May 10, 1999
Source: People's Republic of China (PRC)
Launch site: Taiyaun Space Center, China (TSC)

Note: This is SATELLITE DEBRIS
aabbcc
Your satellite tracking list
Your tracking list is empty




NASA's NSSDC Master Catalog

Two Line Element Set (TLE):
1 36732U 99025EBE 19196.21707893  .00000914  00000-0  98740-4 0  9995
2 36732  98.9762 339.2042 0144270 241.6612 116.9985 14.84330494566946
Source of the keplerian elements: AFSPC